Location: Austin
(30.3000°N, 97.7500°W)
Time: 02:39:19
(UTC-05:00)

SL-16 R/B - Pass Details

Date: 15 May 2024
Orbit: 839 x 849 km, 71.0° (Epoch: 29 May)

Event Time Altitude Azimuth Distance (km) Brightness Sun altitude
Exits shadow 22:11:49 36° 88° (E) 1,305 2.8 -21.7°
Drops below altitude 10° 22:16:19 10° 38° (NE) 2,466 4.6 -22.5°
Sets 22:18:55 0° 30° (NNE) 3,406 5.5 -22.9°
